Location: Unspecified
(64.9000°N, 0.0000°E)
Time: 06:42:01
(UTC+00:00)

A-11 Canister half - Pass Details

Date: 24 June 2019
Orbit: 1526 x 1683 km, 47.3° (Epoch: 17 July)

Event Time Altitude Azimuth Distance (km) Brightness Sun altitude
Rises 04:09:39 0° 204° (SSW) 4,733 11.0 10.1°
Reaches altitude 10° 04:13:59 10° 187° (S) 3,728 10.7 10.5°
Maximum altitude 04:19:40 18° 149° (SSE) 3,111 10.7 11.0°
Drops below altitude 10° 04:25:19 10° 110° (ESE) 3,698 11.7 11.5°
Sets 04:29:34 0° 94° (E) 4,681 12.6 11.9°
